Time,TemperatureF,DewpointF,PressureIn,WindDirection,WindDirectionDegrees,WindSpeedMPH,WindSpeedGustMPH,Humidity,HourlyPrecipIn,Conditions,Clouds,dailyrainin,SoftwareType,DateUTC
2013-04-20 00:03:00,42.0,33.0,-100.00,SSW,206,2.0,4.0,71,0.00,,,1.22,,2013-04-20 04:03:00,
2013-04-20 00:12:00,42.0,33.0,-100.00,SSW,206,2.0,4.0,71,0.00,,,1.22,,2013-04-20 04:12:00,
2013-04-20 00:23:00,41.0,30.0,-100.00,SW,226,3.0,6.0,64,0.00,,,1.22,,2013-04-20 04:23:00,
2013-04-20 00:33:00,41.0,30.0,-100.00,SW,226,3.0,6.0,64,0.00,,,1.22,,2013-04-20 04:33:00,
2013-04-20 00:42:00,41.0,30.0,-100.00,SW,226,3.0,6.0,64,0.00,,,1.22,,2013-04-20 04:42:00,
2013-04-20 00:53:00,41.0,30.0,-100.00,West,280,2.0,6.0,64,0.00,,,1.22,,2013-04-20 04:53:00,
2013-04-20 01:02:00,41.0,29.0,-100.00,WSW,244,2.0,4.0,64,0.00,,,1.22,,2013-04-20 05:02:00,
2013-04-20 01:12:00,41.0,29.0,-100.00,WSW,244,2.0,4.0,64,0.00,,,1.22,,2013-04-20 05:12:00,
2013-04-20 01:22:00,40.0,30.0,-100.00,West,270,0.0,2.0,66,0.00,,,1.22,,2013-04-20 05:22:00,
2013-04-20 01:32:00,40.0,30.0,-100.00,SW,219,2.0,3.0,67,0.00,,,1.22,,2013-04-20 05:32:00,
2013-04-20 01:43:00,40.0,30.0,-100.00,SW,219,2.0,3.0,67,0.00,,,1.22,,2013-04-20 05:43:00,
2013-04-20 01:52:00,40.0,30.0,-100.00,South,178,1.0,2.0,67,0.00,,,1.22,,2013-04-20 05:52:00,
2013-04-20 02:02:00,40.0,30.0,-100.00,ESE,113,1.0,3.0,67,0.00,,,1.22,,2013-04-20 06:02:00,
2013-04-20 02:12:00,40.0,30.0,-100.00,ESE,113,1.0,3.0,67,0.00,,,1.22,,2013-04-20 06:12:00,
2013-04-20 02:21:00,39.0,29.0,-100.00,South,172,2.0,4.0,65,0.00,,,1.22,,2013-04-20 06:21:00,
2013-04-20 02:32:00,39.0,27.0,-100.00,WNW,296,3.0,6.0,60,0.00,,,1.22,,2013-04-20 06:32:00,
2013-04-20 02:42:00,39.0,27.0,-100.00,WNW,296,3.0,6.0,60,0.00,,,1.22,,2013-04-20 06:42:00,
2013-04-20 02:52:00,39.0,26.0,-100.00,WSW,244,3.0,4.0,60,0.00,,,1.22,,2013-04-20 06:52:00,
2013-04-20 03:01:00,38.0,27.0,-100.00,WNW,299,2.0,3.0,62,0.00,,,1.22,,2013-04-20 07:01:00,
2013-04-20 03:11:00,38.0,28.0,-100.00,WSW,258,2.0,5.0,67,0.00,,,1.22,,2013-04-20 07:11:00,
2013-04-20 03:22:00,38.0,28.0,-100.00,WSW,258,2.0,5.0,67,0.00,,,1.22,,2013-04-20 07:22:00,
2013-04-20 03:32:00,38.0,28.0,-100.00,WSW,250,3.0,5.0,67,0.00,,,1.22,,2013-04-20 07:32:00,
2013-04-20 03:42:00,38.0,28.0,-100.00,WSW,250,3.0,5.0,67,0.00,,,1.22,,2013-04-20 07:42:00,
2013-04-20 03:52:00,38.0,28.0,-100.00,WSW,250,3.0,5.0,67,0.00,,,1.22,,2013-04-20 07:52:00,
2013-04-20 04:02:00,37.0,28.0,-100.00,NNW,330,2.0,3.0,69,0.00,,,1.22,,2013-04-20 08:02:00,
2013-04-20 04:11:00,37.0,28.0,-100.00,NNW,330,2.0,3.0,69,0.00,,,1.22,,2013-04-20 08:11:00,
2013-04-20 04:21:00,36.0,27.0,-100.00,North,350,1.0,2.0,69,0.00,,,1.22,,2013-04-20 08:21:00,
2013-04-20 04:32:00,36.0,27.0,-100.00,NNW,333,1.0,2.0,69,0.00,,,1.22,,2013-04-20 08:32:00,
2013-04-20 04:42:00,36.0,27.0,-100.00,NNW,333,1.0,2.0,69,0.00,,,1.22,,2013-04-20 08:42:00,
2013-04-20 04:52:00,35.0,27.0,-100.00,NNW,336,3.0,5.0,73,0.00,,,1.22,,2013-04-20 08:52:00,
2013-04-20 05:02:00,35.0,27.0,-100.00,NNW,336,3.0,5.0,73,0.00,,,1.22,,2013-04-20 09:02:00,
2013-04-20 05:12:00,35.0,27.0,-100.00,NNW,336,3.0,5.0,73,0.00,,,1.22,,2013-04-20 09:12:00,
2013-04-20 05:22:00,35.0,26.0,-100.00,North,360,1.0,2.0,69,0.00,,,1.22,,2013-04-20 09:22:00,
2013-04-20 05:33:00,35.0,27.0,-100.00,NW,323,2.0,2.0,72,0.00,,,1.22,,2013-04-20 09:33:00,
2013-04-20 05:43:00,35.0,27.0,-100.00,NW,323,2.0,2.0,72,0.00,,,1.22,,2013-04-20 09:43:00,
2013-04-20 05:53:00,36.0,25.0,-100.00,West,264,2.0,4.0,65,0.00,,,1.22,,2013-04-20 09:53:00,
2013-04-20 06:03:00,36.0,25.0,-100.00,West,264,2.0,4.0,65,0.00,,,1.22,,2013-04-20 10:03:00,
2013-04-20 06:13:00,36.0,25.0,-100.00,West,264,2.0,4.0,65,0.00,,,1.22,,2013-04-20 10:13:00,
2013-04-20 06:23:00,36.0,25.0,-100.00,West,264,2.0,4.0,65,0.00,,,1.22,,2013-04-20 10:23:00,
2013-04-20 06:33:00,34.0,27.0,-100.00,SSW,200,0.0,0.0,74,0.00,,,1.22,,2013-04-20 10:33:00,
2013-04-20 06:42:00,34.0,27.0,-100.00,SSW,200,0.0,0.0,74,0.00,,,1.22,,2013-04-20 10:42:00,
2013-04-20 06:53:00,33.0,26.0,-100.00,SW,220,0.0,0.0,76,0.00,,,1.22,,2013-04-20 10:53:00,
2013-04-20 07:02:00,33.0,27.0,-100.00,NNW,343,1.0,2.0,79,0.00,,,1.22,,2013-04-20 11:02:00,
2013-04-20 07:12:00,33.0,27.0,-100.00,NNW,343,1.0,2.0,79,0.00,,,1.22,,2013-04-20 11:12:00,
2013-04-20 07:23:00,33.0,27.0,-100.00,NNW,332,1.0,2.0,79,0.00,,,1.22,,2013-04-20 11:23:00,
2013-04-20 07:32:00,33.0,27.0,-100.00,NNW,342,1.0,2.0,79,0.00,,,1.22,,2013-04-20 11:32:00,
2013-04-20 07:42:00,33.0,27.0,-100.00,NNW,342,1.0,2.0,79,0.00,,,1.22,,2013-04-20 11:42:00,
2013-04-20 07:53:00,33.0,27.0,-100.00,NW,325,2.0,3.0,79,0.00,,,1.22,,2013-04-20 11:53:00,
2013-04-20 08:02:00,34.0,28.0,-100.00,WSW,237,0.0,1.0,78,0.00,,,1.22,,2013-04-20 12:02:00,
2013-04-20 08:11:00,34.0,28.0,-100.00,WSW,237,0.0,1.0,78,0.00,,,1.22,,2013-04-20 12:11:00,
2013-04-20 08:23:00,35.0,28.0,-100.00,WSW,254,0.0,1.0,75,0.00,,,1.21,,2013-04-20 12:23:00,
2013-04-20 08:32:00,36.0,29.0,-100.00,SSW,192,1.0,2.0,75,0.00,,,1.19,,2013-04-20 12:32:00,
2013-04-20 08:42:00,36.0,29.0,-100.00,SSW,192,1.0,2.0,75,0.00,,,1.19,,2013-04-20 12:42:00,
2013-04-20 08:52:00,37.0,29.0,-100.00,ESE,112,2.0,2.0,74,0.00,,,1.16,,2013-04-20 12:52:00,
2013-04-20 09:02:00,38.0,28.0,-100.00,SE,145,1.0,2.0,69,0.00,,,1.13,,2013-04-20 13:02:00,
2013-04-20 09:11:00,38.0,28.0,-100.00,SE,145,1.0,2.0,69,0.00,,,1.13,,2013-04-20 13:11:00,
2013-04-20 09:22:00,37.0,30.0,-100.00,SSE,151,2.0,2.0,74,0.00,,,1.09,,2013-04-20 13:22:00,
2013-04-20 09:32:00,39.0,30.0,-100.00,South,178,2.0,2.0,70,0.00,,,1.01,,2013-04-20 13:32:00,
2013-04-20 09:42:00,39.0,30.0,-100.00,South,178,2.0,2.0,70,0.00,,,1.01,,2013-04-20 13:42:00,
2013-04-20 09:52:00,39.0,28.0,-100.00,SSW,203,2.0,4.0,65,0.00,,,0.96,,2013-04-20 13:52:00,
2013-04-20 10:02:00,39.0,28.0,-100.00,South,182,2.0,4.0,65,0.00,,,0.88,,2013-04-20 14:02:00,
2013-04-20 10:11:00,39.0,28.0,-100.00,South,182,2.0,4.0,65,0.00,,,0.88,,2013-04-20 14:11:00,
2013-04-20 10:21:00,41.0,31.0,-100.00,South,174,2.0,4.0,67,0.00,,,0.74,,2013-04-20 14:21:00,
2013-04-20 10:32:00,41.0,31.0,-100.00,South,174,2.0,4.0,67,0.00,,,0.74,,2013-04-20 14:32:00,
2013-04-20 10:42:00,41.0,31.0,-100.00,South,174,2.0,4.0,67,0.00,,,0.74,,2013-04-20 14:42:00,
2013-04-20 10:52:00,41.0,31.0,-100.00,South,174,2.0,4.0,67,0.00,,,0.74,,2013-04-20 14:52:00,
2013-04-20 11:02:00,44.0,28.0,-100.00,SSE,168,1.0,4.0,55,0.00,,,0.56,,2013-04-20 15:02:00,
2013-04-20 11:12:00,44.0,28.0,-100.00,SSE,168,1.0,4.0,55,0.00,,,0.56,,2013-04-20 15:12:00,
2013-04-20 11:22:00,46.0,28.0,-100.00,SSW,205,4.0,7.0,49,0.00,,,0.52,,2013-04-20 15:22:00,
2013-04-20 11:33:00,46.0,28.0,-100.00,SSW,205,4.0,7.0,49,0.00,,,0.52,,2013-04-20 15:33:00,
2013-04-20 11:43:00,46.0,28.0,-100.00,SSW,205,4.0,7.0,49,0.00,,,0.52,,2013-04-20 15:43:00,
2013-04-20 11:53:00,46.0,28.0,-100.00,South,189,2.0,4.0,49,0.00,,,0.40,,2013-04-20 15:53:00,
2013-04-20 12:03:00,46.0,28.0,-100.00,South,189,2.0,4.0,49,0.00,,,0.40,,2013-04-20 16:03:00,
2013-04-20 12:12:00,46.0,28.0,-100.00,South,189,2.0,4.0,49,0.00,,,0.40,,2013-04-20 16:12:00,
2013-04-20 12:23:00,47.0,25.0,-100.00,SSW,198,5.0,8.0,42,0.00,,,0.31,,2013-04-20 16:23:00,
2013-04-20 12:33:00,47.0,25.0,-100.00,SSW,198,5.0,8.0,42,0.00,,,0.31,,2013-04-20 16:33:00,
2013-04-20 12:42:00,47.0,25.0,-100.00,SSW,198,5.0,8.0,42,0.00,,,0.31,,2013-04-20 16:42:00,
2013-04-20 12:53:00,47.0,26.0,-100.00,South,174,4.0,8.0,43,0.00,,,0.26,,2013-04-20 16:53:00,
2013-04-20 13:02:00,51.0,28.0,-100.00,SSE,161,2.0,4.0,41,0.00,,,0.22,,2013-04-20 17:02:00,
2013-04-20 13:12:00,51.0,28.0,-100.00,SSE,161,2.0,4.0,41,0.00,,,0.22,,2013-04-20 17:12:00,
2013-04-20 13:23:00,49.0,27.0,-100.00,SSW,200,5.0,9.0,43,0.00,,,0.21,,2013-04-20 17:23:00,
2013-04-20 13:33:00,50.0,28.0,-100.00,SSE,151,4.0,7.0,43,0.00,,,0.16,,2013-04-20 17:33:00,
2013-04-20 13:42:00,51.0,22.0,-100.00,SSW,210,7.0,12.0,32,0.00,,,0.16,,2013-04-20 17:42:00,
2013-04-20 13:52:00,51.0,24.0,-100.00,South,175,3.0,5.0,35,0.00,,,0.09,,2013-04-20 17:52:00,
2013-04-20 14:02:00,51.0,24.0,-100.00,South,175,3.0,5.0,35,0.00,,,0.09,,2013-04-20 18:02:00,
2013-04-20 14:13:00,51.0,24.0,-100.00,South,175,3.0,5.0,35,0.00,,,0.09,,2013-04-20 18:13:00,
2013-04-20 14:22:00,53.0,24.0,-100.00,SSE,162,3.0,5.0,31,0.00,,,0.08,,2013-04-20 18:22:00,
2013-04-20 14:32:00,53.0,27.0,-100.00,SW,215,3.0,6.0,37,0.00,,,0.01,,2013-04-20 18:32:00,
2013-04-20 14:42:00,53.0,27.0,-100.00,SW,215,3.0,6.0,37,0.00,,,0.01,,2013-04-20 18:42:00,
2013-04-20 14:52:00,53.0,27.0,-100.00,SW,215,3.0,6.0,37,0.00,,,0.01,,2013-04-20 18:52:00,
2013-04-20 15:02:00,55.0,26.0,-100.00,SE,136,2.0,6.0,33,0.00,,,0.00,,2013-04-20 19:02:00,
2013-04-20 15:11:00,55.0,26.0,-100.00,SE,136,2.0,6.0,33,0.00,,,0.00,,2013-04-20 19:11:00,
2013-04-20 15:22:00,54.0,24.0,-100.00,SE,127,3.0,5.0,31,0.00,,,0.00,,2013-04-20 19:22:00,
2013-04-20 15:32:00,55.0,25.0,-100.00,ESE,106,5.0,7.0,31,0.00,,,0.00,,2013-04-20 19:32:00,
2013-04-20 15:42:00,55.0,25.0,-100.00,ESE,106,5.0,7.0,31,0.00,,,0.00,,2013-04-20 19:42:00,
2013-04-20 15:52:00,56.0,27.0,-100.00,SW,232,3.0,5.0,33,0.00,,,0.00,,2013-04-20 19:52:00,
2013-04-20 16:02:00,56.0,27.0,-100.00,SW,232,3.0,5.0,33,0.00,,,0.00,,2013-04-20 20:02:00,
2013-04-20 16:12:00,56.0,27.0,-100.00,SW,232,3.0,5.0,33,0.00,,,0.00,,2013-04-20 20:12:00,
2013-04-20 16:22:00,52.0,25.0,-100.00,ESE,104,6.0,9.0,35,0.00,,,0.00,,2013-04-20 20:22:00,
2013-04-20 16:32:00,56.0,26.0,-100.00,SW,223,2.0,5.0,31,0.00,,,0.00,,2013-04-20 20:32:00,
2013-04-20 16:42:00,56.0,26.0,-100.00,SW,223,2.0,5.0,31,0.00,,,0.00,,2013-04-20 20:42:00,
2013-04-20 16:52:00,54.0,22.0,-100.00,West,275,6.0,9.0,28,0.00,,,0.00,,2013-04-20 20:52:00,
2013-04-20 17:01:00,57.0,22.0,-100.00,North,11,2.0,5.0,26,0.00,,,0.00,,2013-04-20 21:01:00,
2013-04-20 17:12:00,57.0,22.0,-100.00,North,11,2.0,5.0,26,0.00,,,0.00,,2013-04-20 21:12:00,
2013-04-20 17:22:00,55.0,23.0,-100.00,SSW,210,4.0,6.0,29,0.00,,,0.00,,2013-04-20 21:22:00,
2013-04-20 17:33:00,55.0,23.0,-100.00,SSW,210,4.0,6.0,29,0.00,,,0.00,,2013-04-20 21:33:00,
2013-04-20 17:43:00,55.0,23.0,-100.00,SSW,210,4.0,6.0,29,0.00,,,0.00,,2013-04-20 21:43:00,
2013-04-20 17:53:00,55.0,23.0,-100.00,SSW,210,4.0,6.0,29,0.00,,,0.00,,2013-04-20 21:53:00,
2013-04-20 18:03:00,55.0,24.0,-100.00,WSW,244,2.0,4.0,29,0.00,,,0.00,,2013-04-20 22:03:00,
2013-04-20 18:13:00,55.0,24.0,-100.00,WSW,244,2.0,4.0,29,0.00,,,0.00,,2013-04-20 22:13:00,
2013-04-20 18:23:00,54.0,23.0,-100.00,ESE,116,4.0,5.0,30,0.00,,,0.00,,2013-04-20 22:23:00,
2013-04-20 18:32:00,54.0,23.0,-100.00,ESE,116,4.0,5.0,30,0.00,,,0.00,,2013-04-20 22:32:00,
2013-04-20 18:42:00,54.0,23.0,-100.00,ESE,116,4.0,5.0,30,0.00,,,0.00,,2013-04-20 22:42:00,
2013-04-20 18:53:00,54.0,21.0,-100.00,SE,130,2.0,4.0,26,0.00,,,0.00,,2013-04-20 22:53:00,
2013-04-20 19:02:00,54.0,21.0,-100.00,ESE,119,4.0,7.0,28,0.00,,,0.00,,2013-04-20 23:02:00,
2013-04-20 19:12:00,54.0,23.0,-100.00,ESE,109,4.0,8.0,29,0.00,,,0.00,,2013-04-20 23:12:00,
2013-04-20 19:22:00,54.0,21.0,-100.00,SSW,198,3.0,7.0,27,0.00,,,0.00,,2013-04-20 23:22:00,
2013-04-20 19:32:00,54.0,21.0,-100.00,SSW,198,3.0,7.0,27,0.00,,,0.00,,2013-04-20 23:32:00,
2013-04-20 19:42:00,54.0,21.0,-100.00,SSW,198,3.0,7.0,27,0.00,,,0.00,,2013-04-20 23:42:00,
2013-04-20 19:53:00,52.0,21.0,-100.00,East,92,1.0,3.0,30,0.00,,,0.00,,2013-04-20 23:53:00,
2013-04-20 20:01:00,51.0,21.0,-100.00,SE,143,1.0,3.0,30,0.00,,,0.00,,2013-04-21 00:01:00,
2013-04-20 20:12:00,51.0,21.0,-100.00,SE,143,1.0,3.0,30,0.00,,,0.00,,2013-04-21 00:12:00,
2013-04-20 20:22:00,50.0,23.0,-100.00,NE,52,2.0,3.0,34,0.00,,,0.00,,2013-04-21 00:22:00,
2013-04-20 20:32:00,49.0,24.0,-100.00,NNE,28,3.0,4.0,37,0.00,,,0.00,,2013-04-21 00:32:00,
2013-04-20 20:42:00,49.0,24.0,-100.00,NNE,28,3.0,4.0,37,0.00,,,0.00,,2013-04-21 00:42:00,
2013-04-20 20:52:00,48.0,24.0,-100.00,NE,35,3.0,4.0,39,0.00,,,0.00,,2013-04-21 00:52:00,
2013-04-20 21:01:00,48.0,24.0,-100.00,NE,35,3.0,4.0,39,0.00,,,0.00,,2013-04-21 01:01:00,
2013-04-20 21:12:00,47.0,22.0,-100.00,NNE,24,3.0,4.0,36,0.00,,,0.00,,2013-04-21 01:12:00,
2013-04-20 21:22:00,47.0,22.0,-100.00,NNE,24,3.0,4.0,36,0.00,,,0.00,,2013-04-21 01:22:00,
2013-04-20 21:32:00,47.0,25.0,-100.00,NE,55,4.0,7.0,41,0.00,,,0.00,,2013-04-21 01:32:00,
2013-04-20 21:42:00,47.0,25.0,-100.00,NE,55,4.0,7.0,41,0.00,,,0.00,,2013-04-21 01:42:00,
2013-04-20 21:52:00,45.0,25.0,-100.00,NE,37,4.0,6.0,44,0.00,,,0.00,,2013-04-21 01:52:00,
2013-04-20 22:02:00,45.0,25.0,-100.00,NE,37,4.0,6.0,44,0.00,,,0.00,,2013-04-21 02:02:00,
2013-04-20 22:11:00,45.0,25.0,-100.00,NE,37,4.0,6.0,44,0.00,,,0.00,,2013-04-21 02:11:00,
2013-04-20 22:22:00,45.0,25.0,-100.00,NE,37,4.0,6.0,44,0.00,,,0.00,,2013-04-21 02:22:00,
2013-04-20 22:32:00,46.0,22.0,-100.00,ENE,58,4.0,4.0,38,0.00,,,0.00,,2013-04-21 02:32:00,
2013-04-20 22:42:00,46.0,22.0,-100.00,ENE,58,4.0,4.0,38,0.00,,,0.00,,2013-04-21 02:42:00,
2013-04-20 22:52:00,46.0,22.0,-100.00,ENE,58,4.0,4.0,38,0.00,,,0.00,,2013-04-21 02:52:00,
2013-04-20 23:01:00,44.0,23.0,-100.00,North,11,4.0,5.0,43,0.00,,,0.00,,2013-04-21 03:01:00,
2013-04-20 23:11:00,44.0,23.0,-100.00,North,11,4.0,5.0,43,0.00,,,0.00,,2013-04-21 03:11:00,
2013-04-20 23:22:00,44.0,26.0,-100.00,NE,45,4.0,6.0,50,0.00,,,0.00,,2013-04-21 03:22:00,
2013-04-20 23:33:00,44.0,25.0,-100.00,ENE,73,4.0,6.0,48,0.00,,,0.00,,2013-04-21 03:33:00,
2013-04-20 23:42:00,44.0,25.0,-100.00,ENE,73,4.0,6.0,48,0.00,,,0.00,,2013-04-21 03:42:00,
2013-04-20 23:53:00,44.0,24.0,-100.00,ENE,78,3.0,4.0,46,0.00,,,0.00,,2013-04-21 03:53:00,